Jacksonville, IL

3:55 AM CST on November 18, 2019 (GMT -0600)
Jacksonville Municipal

Weather History for KIJX - October, 2019

Change the Weather History Date:

Wednesday, October 23, 2019

  Actual Average (WUND) Record (WUND)
Temperature  
Mean Temperature 54 °F -  
Max Temperature 70 °F - - (-1)
Min Temperature 39 °F - - (-1)
Degree Days  
Heating Degree Days 10    
Growing Degree Days 4 (Base 50)    
Moisture  
Dew Point 36 °F    
Average Humidity 52    
Maximum Humidity 74    
Minimum Humidity 29    
Precipitation  
Precipitation 0.00 in - - ()
Sea Level Pressure  
Sea Level Pressure 29.94 in    
Wind  
Wind Speed 8 mph ()    
Max Wind Speed 20 mph    
Max Gust Speed 24 mph    
Visibility 10.0 miles    
Events      
Averages and records for this station are not official NWS values.
T = Trace of Precipitation, MM = Missing Value Source: Averaged Metar Reports

Daily Weather History Graph

Daily Weather History Graph

Search for Another Location

Airport or City:

Astronomy

Oct. 23, 2019 Rise Set
Actual Time 7:19 AM CDT 6:10 PM CDT
Civil Twilight 6:51 AM CDT 6:38 PM CDT
Nautical Twilight 6:20 AM CDT 7:09 PM CDT
Astronomical Twilight 5:49 AM CDT 7:40 PM CDT
Moon 1:39 AM CDT (10/23) 4:00 PM CDT (10/23)
Length of Visible Light 11h 46m
Length of Day
10h 51m
Waning Crescent, 26% of the Moon is Illuminated
Oct 23
Waning Crescent
Oct 27
New
Nov 4
First Quarter
Nov 12
Full
Nov 19
Last Quarter

Hourly Weather History & Observations

Time (CDT) Temp. Windchill Dew Point Humidity Pressure Visibility Wind Dir Wind Speed Gust Speed Precip Events Conditions
12:15 AM 40.3 °F 35.5 °F 32.0 °F 72% 29.95 in 10.0 mi SSW 6.9 mph - N/A   Clear
12:35 AM 40.8 °F 36.9 °F 32.0 °F 71% 29.95 in 10.0 mi SSW 5.8 mph - N/A   Clear
12:55 AM 40.3 °F 35.5 °F 31.8 °F 72% 29.95 in 10.0 mi SSW 6.9 mph - N/A   Clear
1:15 AM 40.6 °F 36.7 °F 31.6 °F 70% 29.95 in 10.0 mi SSW 5.8 mph - N/A   Clear
1:35 AM 39.4 °F 34.5 °F 31.8 °F 74% 29.95 in 10.0 mi SSW 6.9 mph - N/A   Clear
1:55 AM 41.0 °F 36.4 °F 31.6 °F 69% 29.94 in 10.0 mi SSW 6.9 mph - N/A   Clear
2:15 AM 41.4 °F 36.2 °F 31.5 °F 68% 29.94 in 10.0 mi SSW 8.1 mph - N/A   Clear
2:35 AM 41.9 °F 36.9 °F 31.5 °F 66% 29.94 in 10.0 mi SSW 8.1 mph - N/A   Clear
2:55 AM 41.2 °F 36.6 °F 31.5 °F 68% 29.93 in 10.0 mi SSW 6.9 mph - N/A   Clear
3:15 AM 41.0 °F 36.4 °F 31.6 °F 69% 29.93 in 10.0 mi SSW 6.9 mph - N/A   Clear
3:35 AM 41.0 °F 36.4 °F 31.5 °F 69% 29.93 in 10.0 mi SSW 6.9 mph - N/A   Clear
3:55 AM 41.2 °F 36.6 °F 31.8 °F 69% 29.94 in 10.0 mi SSW 6.9 mph - N/A   Clear
4:15 AM 41.7 °F 36.7 °F 31.8 °F 68% 29.94 in 10.0 mi SSW 8.1 mph - N/A   Clear
4:35 AM 41.2 °F 36.0 °F 32.0 °F 70% 29.95 in 10.0 mi SSW 8.1 mph - N/A   Clear
4:55 AM 40.8 °F 36.9 °F 32.0 °F 71% 29.95 in 10.0 mi South 5.8 mph - N/A   Clear
5:15 AM 41.0 °F 36.4 °F 32.4 °F 71% 29.95 in 10.0 mi South 6.9 mph - N/A   Clear
5:35 AM 41.0 °F 35.8 °F 32.4 °F 71% 29.96 in 10.0 mi South 8.1 mph - N/A   Clear
5:55 AM 41.2 °F 36.0 °F 32.9 °F 72% 29.96 in 10.0 mi South 8.1 mph - N/A   Mostly Cloudy
6:15 AM 42.1 °F 37.7 °F 33.1 °F 70% 29.97 in 10.0 mi South 6.9 mph - N/A   Overcast
6:35 AM 42.3 °F 36.8 °F 33.8 °F 72% 29.98 in 10.0 mi South 9.2 mph - N/A   Overcast
6:55 AM 43.0 °F 37.7 °F 34.0 °F 71% 29.98 in 10.0 mi South 9.2 mph - N/A   Overcast
7:15 AM 42.8 °F 38.0 °F 34.2 °F 72% 29.98 in 10.0 mi South 8.1 mph - N/A   Overcast
7:35 AM 43.0 °F 38.2 °F 34.3 °F 72% 29.98 in 10.0 mi South 8.1 mph - N/A   Overcast
7:55 AM 43.7 °F 40.3 °F 34.9 °F 71% 29.97 in 10.0 mi South 5.8 mph - N/A   Overcast
8:15 AM 44.4 °F 39.5 °F 35.1 °F 70% 29.97 in 10.0 mi South 9.2 mph - N/A   Mostly Cloudy
8:35 AM 45.5 °F 40.3 °F 35.4 °F 68% 29.97 in 10.0 mi South 10.4 mph - N/A   Scattered Clouds
8:55 AM 47.3 °F - 35.6 °F 64% 29.98 in 10.0 mi South 11.5 mph 17.3 mph N/A   Scattered Clouds
9:55 AM 53.8 °F - 36.0 °F 51% 29.98 in 10.0 mi SSW 11.5 mph - N/A   Mostly Cloudy
10:15 AM 55.0 °F - 35.8 °F 48% 29.98 in 10.0 mi SSW 12.7 mph 19.6 mph N/A   Scattered Clouds
10:35 AM 56.1 °F - 36.3 °F 47% 29.98 in 10.0 mi SSW 13.8 mph 18.4 mph N/A   Clear
10:55 AM 55.8 °F - 36.1 °F 48% 29.98 in 10.0 mi SSW 11.5 mph 21.9 mph N/A   Scattered Clouds
11:35 AM 60.3 °F - 36.7 °F 41% 29.97 in 10.0 mi SSW 13.8 mph 18.4 mph N/A   Scattered Clouds
11:55 AM 61.9 °F - 36.7 °F 39% 29.97 in 10.0 mi SW 13.8 mph 23.0 mph N/A   Scattered Clouds
12:15 PM 63.7 °F - 37.4 °F 38% 29.97 in 10.0 mi WSW 12.7 mph 19.6 mph N/A   Clear
12:35 PM 66.7 °F - 37.6 °F 34% 29.95 in 10.0 mi SW 15.0 mph 21.9 mph N/A   Clear
12:55 PM 67.1 °F - 36.9 °F 33% 29.94 in 10.0 mi SW 19.6 mph 24.2 mph N/A   Clear
1:15 PM 67.5 °F - 36.7 °F 32% 29.93 in 10.0 mi SW 17.3 mph 23.0 mph N/A   Clear
1:35 PM 67.1 °F - 36.5 °F 32% 29.92 in 10.0 mi SW 10.4 mph - N/A   Clear
1:55 PM 66.6 °F - 35.8 °F 32% 29.92 in 10.0 mi SW 13.8 mph 21.9 mph N/A   Clear
2:15 PM 67.6 °F - 36.7 °F 32% 29.91 in 10.0 mi SSW 15.0 mph 18.4 mph N/A   Clear
2:35 PM 70.2 °F - 37.0 °F 30% 29.90 in 10.0 mi SSW 16.1 mph 23.0 mph N/A   Clear
2:55 PM 70.0 °F - 36.3 °F 29% 29.89 in 10.0 mi SW 15.0 mph 23.0 mph N/A   Clear
3:15 PM 70.2 °F - 36.5 °F 29% 29.89 in 10.0 mi SSW 18.4 mph 23.0 mph N/A   Clear
3:35 PM 70.2 °F - 37.4 °F 30% 29.89 in 10.0 mi SSW 13.8 mph 20.7 mph N/A   Clear
3:55 PM 70.3 °F - 37.9 °F 31% 29.88 in 10.0 mi South 12.7 mph 20.7 mph N/A   Clear
4:15 PM 70.5 °F - 37.6 °F 30% 29.88 in 10.0 mi South 13.8 mph 23.0 mph N/A   Clear
4:35 PM 70.2 °F - 38.1 °F 31% 29.88 in 10.0 mi South 13.8 mph 18.4 mph N/A   Clear
4:55 PM 69.1 °F - 38.3 °F 32% 29.88 in 10.0 mi South 10.4 mph 16.1 mph N/A   Clear
5:15 PM 68.0 °F - 37.6 °F 33% 29.88 in 10.0 mi South 10.4 mph - N/A   Clear
5:35 PM 67.5 °F - 37.8 °F 34% 29.87 in 10.0 mi South 6.9 mph - N/A   Clear
5:55 PM 66.4 °F - 37.8 °F 35% 29.88 in 10.0 mi South 6.9 mph - N/A   Clear
6:15 PM 66.2 °F - 37.8 °F 35% 29.89 in 10.0 mi South 9.2 mph - N/A   Clear
6:35 PM 64.9 °F - 38.5 °F 38% 29.90 in 10.0 mi South 6.9 mph - N/A   Clear
7:15 PM 63.0 °F - 39.4 °F 42% 29.91 in 10.0 mi South 4.6 mph - N/A   Scattered Clouds
7:35 PM 63.3 °F - 39.9 °F 42% 29.92 in 10.0 mi South 6.9 mph - N/A   Mostly Cloudy
7:55 PM 62.8 °F - 40.1 °F 43% 29.92 in 10.0 mi South 6.9 mph - N/A   Overcast
8:15 PM 63.0 °F - 40.1 °F 43% 29.93 in 10.0 mi South 9.2 mph - N/A   Overcast
8:35 PM 63.0 °F - 40.1 °F 43% 29.94 in 10.0 mi SW 6.9 mph - N/A   Overcast
8:55 PM 62.4 °F - 40.8 °F 45% 29.94 in 10.0 mi SSW 6.9 mph - N/A   Overcast
9:15 PM 62.4 °F - 41.0 °F 45% 29.95 in 10.0 mi SSW 6.9 mph - N/A   Overcast
9:35 PM 62.1 °F - 41.0 °F 46% 29.95 in 10.0 mi South 6.9 mph - N/A   Overcast
9:55 PM 61.9 °F - 41.2 °F 47% 29.97 in 10.0 mi SSW 5.8 mph - N/A   Overcast
10:15 PM 60.4 °F - 41.2 °F 49% 29.98 in 10.0 mi SSW 8.1 mph - N/A   Mostly Cloudy
10:35 PM 57.6 °F - 41.5 °F 55% 30.00 in 10.0 mi SW 6.9 mph - N/A   Mostly Cloudy
10:55 PM 57.7 °F - 42.3 °F 56% 30.01 in 10.0 mi SW 6.9 mph - N/A   Mostly Cloudy
11:15 PM 57.4 °F - 42.6 °F 58% 30.02 in 10.0 mi SW 6.9 mph - N/A   Overcast
11:35 PM 55.6 °F - 42.3 °F 61% 30.02 in 10.0 mi SW 5.8 mph - N/A   Scattered Clouds
11:55 PM 54.1 °F - 42.4 °F 65% 30.03 in 10.0 mi WSW 6.9 mph - N/A   Clear